Regional Weather Roundup
Issued by NWS

Home | Current Version | Previous Version | Graphics & Text | Print | Product List | Glossary On
Versions: 1 2 3 4 5 6 7 8 9 10 11 12 13 14 15 16 17 18 19 20 21 22 23 24 25 26 27
000
ASUS45 KBOU 250107
RWRCO

WEATHER ROUNDUP FOR COLORADO
NATIONAL WEATHER SERVICE DENVER/BOULDER CO
700 PM MDT MON APR 24 2017

NOTE: "FAIR" INDICATES FEW OR NO CLOUDS BELOW 12000 FEET WITH NO
SIGNIFICANT WEATHER AND/OR OBSTRUCTIONS TO VISIBILITY.

COZ001>005-013-030-031-250200-
...NORTHWEST COLORADO...

CITY           SKY/WX    TMP DP  RH WIND       PRES   REMARKS
CRAIG          LGT RAIN  50  35  56 W17       29.60F
HAYDEN         NOT AVBL
MEEKER         CLOUDY    52  33  48 NW25G33   29.59S
MOUNT WERNER   NOT AVBL
STEAMBOAT SPGS CLOUDY    42  37  83 SW5       29.64F
WALDEN           N/A     37  34  87 SW6       29.68F
$$

COZ006>008-011-250200-
...WEST CENTRAL VALLEYS...

CITY           SKY/WX    TMP DP  RH WIND       PRES   REMARKS
GRAND JUNCTION CLOUDY    66  25  21 SW13      29.54F
MONTROSE       FAIR      60  27  28 VRB3      29.66F
EAGLE          CLOUDY    54  28  37 SW12      29.66F
RIFLE          CLOUDY    61  28  28 SW18G29   29.60R
DELTA          CLOUDY    65  25  22 S10G20    29.60F
NUCLA          CLOUDY    59  27  29 S10       29.68F
$$

COZ017>023-064>068-250200-
...SOUTHWEST COLORADO...

CITY           SKY/WX    TMP DP  RH WIND       PRES   REMARKS
DURANGO        CLOUDY    54  25  32 NW13G28   29.78S
CORTEZ         CLOUDY    59  27  29 SW3       29.68F
PAGOSA SPRINGS CLOUDY    51  26  38 SW12G20   29.85S
TELLURIDE      CLOUDY    42  29  61 E6        29.86F
WOLF CREEK PAS LGT SNOW  27  27 100 SW26G38   29.97F WCI  11
$$

COZ009-010-012-014-032>034-037-058>063-250200-
...CENTRAL COLORADO...

CITY           SKY/WX    TMP DP  RH WIND       PRES   REMARKS
ASPEN          CLOUDY    48  29  47 S18       29.70F
BUENA VISTA    FAIR      50  24  37 S9G30     29.69F
COPPER MTN     CLOUDY    34  23  64 MISG      29.83F
BERTHOUD PASS  FLURRIES  27  14  59 W15G22    29.84S WCI  15
COTTONWOOD PAS MOCLDY    43  27  52 SW32G41   29.75F
GUNNISON       FAIR      50  26  39 SW12      29.73F
KREMMLING      FAIR      54  32  43 SW7       29.65F
LEADVILLE      FAIR      39  24  55 S15       29.75F
MONARCH PASS   HVY SNOW  28  27  93 W25       29.97F VSB<1/4 WCI  14
SALIDA         FAIR      52  30  42 NW14G20   29.77F
SUNLIGHT       CLOUDY    32  27  80 SW20G32   29.80F WCI  20
WILKERSON PASS MOCLDY    36  21  55 SW12G21   29.84S
$$

COZ069>075-250200-
...SAN LUIS VALLEY/SANGRE DE CRISTO MOUNTAINS...

CITY           SKY/WX    TMP DP  RH WIND       PRES   REMARKS
ALAMOSA        FAIR      54  24  31 W24G32    29.74S
LA VETA PASS   CLOUDY    41  21  45 SW23G38   29.93R
SAGUACHE       FAIR      52  23  32 NW17G23   29.73F
$$

COZ035-036-038>040-250200-
...NORTHERN COLORADO FRONT RANGE...

CITY           SKY/WX    TMP DP  RH WIND       PRES   REMARKS
DENVER INTL AP MOCLDY    59  36  42 NE16      29.54S
DMNS CITY PARK   N/A     60  32  34 NE18      29.53S
AURORA         MOCLDY    59  35  41 NW3       29.55S
FRONT RANGE AP MOCLDY    61  39  44 N12       29.55F
ERIE MUNI ARPT CLOUDY    61  32  33 E6        29.56S
BOULDER MUN AP CLOUDY    59  36  41 N10       29.56S
CENTENNIAL     MOCLDY    61  31  32 SW10      29.55S
BROOMFIELD     CLOUDY    59  32  36 NE8G17    29.57S
FORT COLLINS   LGT RAIN  52  43  71 NE12      29.61R
LONGMONT       CLOUDY    61  38  43 N13       29.60R
$$

COZ041-046-047-076>085-087-088-250200-
...PIKES PEAK/PALMER DIVIDE AND SOUTHERN FOOTHILLS...

CITY           SKY/WX    TMP DP  RH WIND       PRES   REMARKS
COLO. SPRINGS  MOCLDY    65  22  19 W23G31    29.57F
A. F. ACADEMY  MOCLDY    61  22  22 SW10      29.59R
SCHRIEVER AFB  MOCLDY    58  35  42 E14G20    29.58S
ELLICOTT       FAIR     N/A N/A N/A E15       29.56F
FALCON         CLOUDY    55  34  45 E3        29.63S
FORT CARSON    CLOUDY    65  23  20 W20       29.55S
LIMON          MOCLDY    59  36  42 E12       29.56F
MONUMENT HILL  MOCLDY    52  30  43 SE12G18   29.63S
TRINIDAD       FAIR      68  18  14 W16G26    29.58R
$$

COZ042>045-048>051-090-091-250200-
...NORTHEAST COLORADO...

CITY           SKY/WX    TMP DP  RH WIND       PRES   REMARKS
GREELEY ARPT   MOCLDY    54  41  61 NE10      29.58S
AKRON          CLOUDY    61  35  37 NE10      29.55F
BURLINGTON     NOT AVBL
WRAY           NOT AVBL
STERLING       CLOUDY    63  34  34 E6        29.57R
HOLYOKE        FAIR      64  36  34 NE3       29.55F
FORT MORGAN    LGT RAIN  54  40  60 NE15      29.57F
$$

COZ086-089-092>099-250200-
...SOUTHEAST COLORADO...

CITY           SKY/WX    TMP DP  RH WIND       PRES   REMARKS
PUEBLO         FAIR      71  26  18 W18G24    29.50R
LA JUNTA       FAIR      73  31  21 W14       29.47R
LAMAR          FAIR      75  28  17 S14       29.45F
SPRINGFIELD      N/A     67  38  34 E14G24    29.50S
$$




USA.gov is the U.S. government's official web portal to all federal, state and local government web resources and services.